Orbital Elements at Epoch 2459000.5 (2020-May-31.0) TDB
Reference: JPL 40 (heliocentric ecliptic J2000)
Element | Value | Uncertainty (1-sigma) | Units |
e | .1724346577371513 | 2.9308e-08 | |
a | 2.313050731230966 | 8.0657e-09 | au |
q | 1.914200620062487 | 6.7317e-08 | au |
i | 9.394986816887913 | 3.7176e-06 | deg |
node | 89.89272906213871 | 2.126e-05 | deg |
peri | 219.5101929763928 | 2.3836e-05 | deg |
M | 150.0016277083945 | 1.175e-05 | deg |
tp | 2458465.110764604010 (2018-Dec-12.61076460) | 4.1148e-05 | TDB |
period | 1284.920221780835 3.52 | 6.7208e-06 1.84e-08 | d yr |
n | .2801730363470021 | 1.4655e-09 | deg/d |
Q | 2.711900842399445 | 9.4565e-09 | au |
|
| | Orbit Determination Parameters
Additional Information
|